Time,TemperatureF,DewpointF,PressureIn,WindDirection,WindDirectionDegrees,WindSpeedMPH,WindSpeedGustMPH,Humidity,HourlyPrecipIn,Conditions,Clouds,dailyrainin,SoftwareType,DateUTC
2013-09-09 00:14:00,52.0,45.0,30.08,NNW,346,0.0,-999.0,77,-99.99,,,-99.99,,2013-09-09 04:14:00,
2013-09-09 00:24:00,52.0,46.0,30.09,North,349,0.0,-999.0,79,-99.99,,,-99.99,,2013-09-09 04:24:00,
2013-09-09 00:54:00,51.0,44.0,30.10,North,349,0.0,-999.0,77,-99.99,,,-99.99,,2013-09-09 04:54:00,
2013-09-09 01:23:00,51.0,44.0,30.11,North,354,0.0,-999.0,77,-99.99,,,-99.99,,2013-09-09 05:23:00,
2013-09-09 01:53:00,50.0,43.0,30.10,North,354,0.0,-999.0,78,-99.99,,,-99.99,,2013-09-09 05:53:00,
2013-09-09 02:12:00,50.0,44.0,30.11,North,354,0.0,-999.0,79,-99.99,,,-99.99,,2013-09-09 06:12:00,
2013-09-09 02:22:00,50.0,44.0,30.11,North,354,0.0,-999.0,79,-99.99,,,-99.99,,2013-09-09 06:22:00,
2013-09-09 02:52:00,48.0,43.0,30.12,North,354,0.0,-999.0,83,-99.99,,,-99.99,,2013-09-09 06:52:00,
2013-09-09 03:11:00,48.0,43.0,30.12,North,354,0.0,-999.0,83,-99.99,,,-99.99,,2013-09-09 07:11:00,
2013-09-09 03:22:00,48.0,43.0,30.12,North,354,0.0,-999.0,83,-99.99,,,-99.99,,2013-09-09 07:22:00,
2013-09-09 03:52:00,47.0,42.0,30.13,North,354,0.0,-999.0,83,-99.99,,,-99.99,,2013-09-09 07:52:00,
2013-09-09 04:12:00,47.0,43.0,30.13,North,354,0.0,-999.0,85,-99.99,,,-99.99,,2013-09-09 08:12:00,
2013-09-09 04:22:00,46.0,41.0,30.14,North,354,0.0,-999.0,84,-99.99,,,-99.99,,2013-09-09 08:22:00,
2013-09-09 04:52:00,46.0,42.0,30.15,North,354,0.0,-999.0,86,-99.99,,,-99.99,,2013-09-09 08:52:00,
2013-09-09 05:12:00,45.0,41.0,30.16,North,354,0.0,-999.0,87,-99.99,,,-99.99,,2013-09-09 09:12:00,
2013-09-09 05:22:00,45.0,42.0,30.17,North,354,0.0,-999.0,88,-99.99,,,-99.99,,2013-09-09 09:22:00,
2013-09-09 05:53:00,44.0,41.0,30.18,North,354,0.0,-999.0,88,-99.99,,,-99.99,,2013-09-09 09:53:00,
2013-09-09 06:23:00,44.0,41.0,30.19,North,354,0.0,-999.0,88,-99.99,,,-99.99,,2013-09-09 10:23:00,
2013-09-09 06:52:00,44.0,40.0,30.20,North,354,0.0,-999.0,87,-99.99,,,-99.99,,2013-09-09 10:52:00,
2013-09-09 07:12:00,44.0,40.0,30.21,North,354,0.0,-999.0,87,-99.99,,,-99.99,,2013-09-09 11:12:00,
2013-09-09 07:22:00,44.0,41.0,30.22,North,354,0.0,-999.0,88,-99.99,,,-99.99,,2013-09-09 11:22:00,
2013-09-09 07:52:00,44.0,40.0,30.23,North,354,0.0,-999.0,86,-99.99,,,-99.99,,2013-09-09 11:52:00,
2013-09-09 08:12:00,44.0,40.0,30.24,North,354,0.0,-999.0,87,-99.99,,,-99.99,,2013-09-09 12:12:00,
2013-09-09 08:22:00,45.0,41.0,30.24,North,354,0.0,-999.0,87,-99.99,,,-99.99,,2013-09-09 12:22:00,
2013-09-09 08:52:00,48.0,42.0,30.24,North,354,0.0,-999.0,80,-99.99,,,-99.99,,2013-09-09 12:52:00,
2013-09-09 09:12:00,49.0,43.0,30.24,North,354,0.0,-999.0,79,-99.99,,,-99.99,,2013-09-09 13:12:00,
2013-09-09 09:22:00,49.0,42.0,30.24,North,354,0.0,-999.0,78,-99.99,,,-99.99,,2013-09-09 13:22:00,
2013-09-09 09:52:00,52.0,43.0,30.24,North,354,0.0,-999.0,72,-99.99,,,-99.99,,2013-09-09 13:52:00,
2013-09-09 10:12:00,53.0,43.0,30.24,North,354,0.0,-999.0,69,-99.99,,,-99.99,,2013-09-09 14:12:00,
2013-09-09 10:22:00,56.0,44.0,30.24,North,354,0.0,-999.0,63,-99.99,,,-99.99,,2013-09-09 14:22:00,
2013-09-09 10:52:00,60.0,43.0,30.24,North,354,0.0,-999.0,54,-99.99,,,-99.99,,2013-09-09 14:52:00,
2013-09-09 11:11:00,60.0,43.0,30.25,North,354,0.0,-999.0,53,-99.99,,,-99.99,,2013-09-09 15:11:00,
2013-09-09 11:22:00,62.0,43.0,30.24,NNW,340,0.0,-999.0,49,-99.99,,,-99.99,,2013-09-09 15:22:00,
2013-09-09 11:53:00,63.0,43.0,30.24,NNW,335,0.0,-999.0,48,-99.99,,,-99.99,,2013-09-09 15:53:00,
2013-09-09 12:13:00,64.0,43.0,30.24,NNW,333,0.0,-999.0,47,-99.99,,,-99.99,,2013-09-09 16:13:00,
2013-09-09 12:25:00,66.0,48.0,30.23,NNW,333,0.0,-999.0,52,-99.99,,,-99.99,,2013-09-09 16:25:00,
2013-09-09 12:54:00,65.0,45.0,30.22,NW,304,0.0,-999.0,48,-99.99,,,-99.99,,2013-09-09 16:54:00,
2013-09-09 13:12:00,66.0,46.0,30.22,WSW,255,0.0,-999.0,49,-99.99,,,-99.99,,2013-09-09 17:12:00,
2013-09-09 13:23:00,67.0,46.0,30.22,SSW,210,1.0,-999.0,46,-99.99,,,-99.99,,2013-09-09 17:23:00,
2013-09-09 13:53:00,67.0,46.0,30.21,NNW,340,1.0,-999.0,46,-99.99,,,-99.99,,2013-09-09 17:53:00,
2013-09-09 14:13:00,68.0,46.0,30.20,WSW,242,1.0,-999.0,46,-99.99,,,-99.99,,2013-09-09 18:13:00,
2013-09-09 14:22:00,68.0,48.0,30.20,SW,234,0.0,-999.0,48,-99.99,,,-99.99,,2013-09-09 18:22:00,
2013-09-09 14:52:00,69.0,48.0,30.19,West,263,0.0,-999.0,47,-99.99,,,-99.99,,2013-09-09 18:52:00,
2013-09-09 15:12:00,67.0,47.0,30.19,SSW,201,0.0,-999.0,48,-99.99,,,-99.99,,2013-09-09 19:12:00,
2013-09-09 15:22:00,68.0,50.0,30.19,SW,235,1.0,-999.0,52,-99.99,,,-99.99,,2013-09-09 19:22:00,
2013-09-09 15:43:00,68.0,49.0,30.19,West,274,0.0,-999.0,51,-99.99,,,-99.99,,2013-09-09 19:43:00,
2013-09-09 15:52:00,69.0,48.0,30.18,SSW,205,0.0,-999.0,48,-99.99,,,-99.99,,2013-09-09 19:52:00,
2013-09-09 16:12:00,68.0,48.0,30.19,SSW,195,0.0,-999.0,48,-99.99,,,-99.99,,2013-09-09 20:12:00,
2013-09-09 16:22:00,69.0,49.0,30.19,WSW,249,1.0,-999.0,49,-99.99,,,-99.99,,2013-09-09 20:22:00,
2013-09-09 16:53:00,69.0,50.0,30.18,NNW,338,0.0,-999.0,51,-99.99,,,-99.99,,2013-09-09 20:53:00,
2013-09-09 17:22:00,68.0,50.0,30.17,SW,224,0.0,-999.0,52,-99.99,,,-99.99,,2013-09-09 21:22:00,
2013-09-09 17:54:00,67.0,50.0,30.17,SSW,210,0.0,-999.0,55,-99.99,,,-99.99,,2013-09-09 21:54:00,
2013-09-09 18:24:00,65.0,50.0,30.17,SW,214,0.0,-999.0,58,-99.99,,,-99.99,,2013-09-09 22:24:00,
2013-09-09 18:54:00,64.0,51.0,30.17,SW,233,0.0,-999.0,62,-99.99,,,-99.99,,2013-09-09 22:54:00,
2013-09-09 19:12:00,63.0,51.0,30.16,SW,236,0.0,-999.0,64,-99.99,,,-99.99,,2013-09-09 23:12:00,
2013-09-09 19:22:00,62.0,51.0,30.16,SW,235,0.0,-999.0,66,-99.99,,,-99.99,,2013-09-09 23:22:00,
2013-09-09 19:52:00,60.0,50.0,30.16,WSW,256,0.0,-999.0,69,-99.99,,,-99.99,,2013-09-09 23:52:00,
2013-09-09 20:12:00,59.0,50.0,30.16,WSW,255,0.0,-999.0,72,-99.99,,,-99.99,,2013-09-10 00:12:00,
2013-09-09 20:22:00,59.0,51.0,30.16,WSW,255,0.0,-999.0,74,-99.99,,,-99.99,,2013-09-10 00:22:00,
2013-09-09 20:42:00,59.0,52.0,30.17,WSW,255,0.0,-999.0,77,-99.99,,,-99.99,,2013-09-10 00:42:00,
2013-09-09 20:52:00,58.0,50.0,30.17,WSW,249,0.0,-999.0,76,-99.99,,,-99.99,,2013-09-10 00:52:00,
2013-09-09 21:12:00,58.0,50.0,30.17,WSW,249,0.0,-999.0,76,-99.99,,,-99.99,,2013-09-10 01:12:00,
2013-09-09 21:21:00,58.0,51.0,30.17,WSW,243,0.0,-999.0,78,-99.99,,,-99.99,,2013-09-10 01:21:00,
2013-09-09 21:42:00,58.0,51.0,30.17,SW,229,0.0,-999.0,78,-99.99,,,-99.99,,2013-09-10 01:42:00,
2013-09-09 21:52:00,58.0,52.0,30.17,SW,228,0.0,-999.0,79,-99.99,,,-99.99,,2013-09-10 01:52:00,
2013-09-09 22:12:00,58.0,52.0,30.17,SW,226,0.0,-999.0,79,-99.99,,,-99.99,,2013-09-10 02:12:00,
2013-09-09 22:22:00,58.0,52.0,30.16,SSW,193,0.0,-999.0,79,-99.99,,,-99.99,,2013-09-10 02:22:00,
2013-09-09 22:42:00,58.0,52.0,30.17,SW,221,0.0,-999.0,79,-99.99,,,-99.99,,2013-09-10 02:42:00,
2013-09-09 22:52:00,58.0,52.0,30.17,SSW,212,0.0,-999.0,79,-99.99,,,-99.99,,2013-09-10 02:52:00,
2013-09-09 23:12:00,58.0,52.0,30.17,SSW,212,0.0,-999.0,80,-99.99,,,-99.99,,2013-09-10 03:12:00,
2013-09-09 23:22:00,58.0,52.0,30.17,SW,225,0.0,-999.0,80,-99.99,,,-99.99,,2013-09-10 03:22:00,
2013-09-09 23:54:00,58.0,52.0,30.17,SW,233,0.0,-999.0,80,-99.99,,,-99.99,,2013-09-10 03:54:00,